QPF
0.03 0.04 0.05 0.06 0.07 0.07 0.05 0.05 0.07 0.06 0.07 0.07 0.06 0.05 0.03 0.03 0.04 0.05 0.05 0.07 0.10 0.14 0.16 0.13 0.11 0.10 0.10 0.12 0.14 0.14 0.15 0.15 0.13 0.12 0.12 0.12 0.14 0.17 0.19 0.22 0.22 0.19 0.15
0.03 0.04 0.05 0.05 0.07 0.05 0.04 0.05 0.06 0.05 0.05 0.06 0.05 0.04 0.03 0.02 0.03 0.04 0.05 0.08 0.12 0.14 0.16 0.15 0.15 0.13 0.11 0.12 0.12 0.13 0.15 0.20 0.20 0.20 0.19 0.17 0.15 0.13 0.13 0.15 0.15 0.13 0.13
0.03 0.04 0.04 0.04 0.04 0.04 0.05 0.06 0.06 0.04 0.03 0.04 0.04 0.03 0.03 0.04 0.04 0.05 0.06 0.09 0.11 0.14 0.15 0.17 0.20 0.19 0.17 0.15 0.15 0.15 0.15 0.16 0.16 0.14 0.14 0.16 0.15 0.11 0.11 0.10 0.11 0.11 0.11
0.04 0.04 0.04 0.04 0.03 0.03 0.03 0.03 0.02 0.02 0.01 0.01 0.03 0.03 0.05 0.06 0.07 0.08 0.08 0.08 0.12 0.17 0.14 0.12 0.09 0.09 0.10 0.11 0.12 0.12 0.12 0.12 0.13 0.12 0.12 0.11 0.12 0.12 0.12 0.10 0.10 0.09 0.09
0.05 0.04 0.05 0.04 0.02 0.02 0.02 0.01 0.01 0.02 0.01 0.02 0.02 0.03 0.03 0.03 0.05 0.06 0.06 0.08 0.14 0.11 0.06 0.04 0.03 0.04 0.03 0.03 0.04 0.05 0.07 0.07 0.08 0.09 0.09 0.09 0.10 0.10 0.10 0.10 0.10 0.10 0.10
0.07 0.05 0.03 0.03 0.02 0.01 0.01 0.01 0.01 0.02 0.02 0.02 0.03 0.04 0.05 0.04 0.05 0.06 0.07 0.07 0.06 0.03 0.02 0.02 0.02 0.03 0.03 0.03 0.04 0.05 0.07 0.08 0.10 0.10 0.09 0.07 0.08 0.08 0.09 0.09 0.09 0.10 0.11
0.03 0.02 0.02 0.01 0.01 0.01 0.01 0.02 0.02 0.03 0.02 0.02 0.02 0.02 0.03 0.04 0.05 0.06 0.06 0.04 0.02 0.01 0.02 0.02 0.03 0.04 0.04 0.04 0.06 0.07 0.08 0.07 0.07 0.07 0.07 0.07 0.07 0.08 0.09 0.10 0.10 0.11 0.12
0.01 0.01 0.02 0.02 0.01 0.01 0.01 0.00 0.00 0.01 0.01 0.01 0.01 0.01 0.02 0.03 0.04 0.04 0.04 0.03 0.02 0.02 0.02 0.02 0.02 0.02 0.02 0.03 0.04 0.04 0.04 0.05 0.06 0.05 0.06 0.06 0.06 0.06 0.07 0.07 0.08 0.08 0.09
0.01 0.01 0.01 0.01 0.01 0.01 0.00 0.00 0.00 0.00 0.00 0.00 0.01 0.01 0.01 0.02 0.02 0.02 0.02 0.02 0.02 0.02 0.02 0.02 0.02 0.02 0.03 0.03 0.04 0.04 0.04 0.05 0.07 0.06 0.05 0.05 0.05 0.06 0.06 0.06 0.07 0.09 0.10
0.02 0.01 0.02 0.01 0.01 0.01 0.01 0.00 0.00 0.00 0.00 0.00 0.01 0.01 0.01 0.01 0.02 0.01 0.01 0.01 0.01 0.01 0.01 0.01 0.02 0.03 0.04 0.04 0.04 0.03 0.03 0.03 0.04 0.05 0.05 0.06 0.06 0.06 0.07 0.07 0.07 0.08 0.07
0.02 0.02 0.02 0.02 0.01 0.01 0.01 0.00 0.00 0.01 0.01 0.00 0.02 0.03 0.01 0.01 0.01 0.01 0.01 0.01 0.01 0.01 0.02 0.02 0.03 0.04 0.03 0.03 0.04 0.05 0.05 0.05 0.05 0.05 0.05 0.06 0.06 0.06 0.06 0.06 0.05 0.06 0.06
0.03 0.02 0.02 0.01 0.01 0.02 0.01 0.01 0.01 0.01 0.01 0.00 0.01 0.01 0.00 0.00 0.01 0.01 0.01 0.02 0.02 0.01 0.02 0.04 0.05 0.04 0.02 0.02 0.03 0.03 0.04 0.03 0.02 0.02 0.02 0.02 0.03 0.03 0.03 0.03 0.03 0.03 0.03
0.02 0.02 0.01 0.01 0.01 0.01 0.01 0.01 0.01 0.01 0.01 0.00 0.00 0.00 0.00 0.00 0.01 0.01 0.01 0.01 0.02 0.02 0.03 0.04 0.04 0.03 0.02 0.02 0.02 0.02 0.02 0.01 0.01 0.01 0.01 0.01 0.00 0.01 0.01 0.01 0.01 0.02 0.02
0.02 0.01 0.01 0.01 0.01 0.01 0.01 0.01 0.00 0.00 0.00 0.00 0.00 0.00 0.00 0.00 0.00 0.01 0.01 0.01 0.02 0.02 0.02 0.01 0.01 0.01 0.00 0.00 0.00 0.00 0.00 0.00 0.00 0.00 0.00 0.00 0.01 0.01 0.01 0.01 0.01 0.02 0.03
0.02 0.01 0.01 0.01 0.01 0.01 0.01 0.00 0.00 0.00 0.00 0.00 0.00 0.00 0.00 0.00 0.00 0.00 0.00 0.01 0.01 0.02 0.02 0.02 0.02 0.01 0.00 0.00 0.00 0.00 0.01 0.01 0.01 0.01 0.01 0.01 0.01 0.01 0.00 0.00 0.00 0.01 0.02
0.01 0.01 0.01 0.01 0.00 0.00 0.00 0.00 0.00 0.00 0.00 0.00 0.00 0.00 0.00 0.00 0.00 0.00 0.00 0.00 0.00 0.00 0.00 0.00 0.00 0.00 0.00 0.00 0.00 0.00 0.00 0.00 0.00 0.00 0.00 0.01 0.01 0.01 0.00 0.00 0.01 0.01 0.02
0.01 0.01 0.01 0.01 0.00 0.00 0.00 0.01 0.01 0.01 0.00 0.00 0.00 0.00 0.00 0.00 0.00 0.00 0.00 0.00 0.00 0.00 0.00 0.00 0.00 0.00 0.00 0.00 0.00 0.00 0.00 0.00 0.00 0.00 0.00 0.00 0.00 0.00 0.00 0.00 0.01 0.01 0.01
0.01 0.01 0.01 0.00 0.00 0.01 0.01 0.01 0.01 0.01 0.00 0.00 0.00 0.00 0.00 0.00 0.00 0.00 0.00 0.01 0.01 0.01 0.00 0.00 0.00 0.00 0.00 0.01 0.01 0.01 0.01 0.01 0.01 0.01 0.00 0.00 0.00 0.00 0.00 0.00 0.01 0.01 0.01
0.00 0.00 0.00 0.00 0.01 0.01 0.01 0.01 0.00 0.00 0.00 0.00 0.00 0.00 0.00 0.00 0.00 0.00 0.00 0.00 0.01 0.01 0.01 0.01 0.01 0.01 0.01 0.01 0.01 0.01 0.01 0.01 0.01 0.01 0.01 0.00 0.00 0.00 0.00 0.00 0.00 0.01 0.01
0.01 0.01 0.01 0.01 0.02 0.01 0.01 0.01 0.00 0.00 0.00 0.00 0.00 0.00 0.00 0.00 0.00 0.00 0.00 0.00 0.00 0.00 0.00 0.01 0.01 0.01 0.01 0.01 0.01 0.01 0.01 0.01 0.01 0.01 0.00 0.00 0.00 0.00 0.00 0.00 0.00 0.00 0.00
0.01 0.02 0.02 0.02 0.02 0.01 0.01 0.01 0.01 0.01 0.01 0.00 0.00 0.00 0.00 0.00 0.00 0.00 0.00 0.00 0.00 0.00 0.00 0.00 0.00 0.01 0.01 0.01 0.01 0.01 0.01 0.00 0.00 0.00 0.00 0.00 0.00 0.00 0.00 0.00 0.00 0.00 0.00
0.01 0.01 0.01 0.01 0.01 0.01 0.01 0.01 0.01 0.01 0.01 0.01 0.01 0.01 0.00 0.00 0.00 0.00 0.00 0.00 0.00 0.00 0.00 0.01 0.01 0.01 0.01 0.01 0.01 0.01 0.01 0.00 0.00 0.00 0.00 0.00 0.00 0.00 0.00 0.00 0.00 0.00 0.00
0.01 0.01 0.01 0.00 0.00 0.01 0.01 0.01 0.01 0.01 0.01 0.01 0.01 0.00 0.00 0.00 0.00 0.00 0.00 0.00 0.00 0.00 0.00 0.00 0.00 0.00 0.00 0.00 0.00 0.00 0.00 0.00 0.00 0.00 0.00 0.00 0.00 0.00 0.00 0.00 0.00 0.00 0.00
0.01 0.01 0.00 0.00 0.00 0.01 0.01 0.01 0.01 0.01 0.01 0.01 0.00 0.00 0.00 0.00 0.00 0.00 0.00 0.00 0.00 0.00 0.00 0.00 0.00 0.00 0.00 0.00 0.00 0.00 0.00 0.00 0.00 0.00 0.00 0.00 0.00 0.00 0.00 0.00 0.00 0.00 0.00
0.00 0.00 0.01 0.01 0.01 0.01 0.01 0.01 0.01 0.01 0.01 0.01 0.00 0.00 0.00 0.00 0.00 0.00 0.00 0.00 0.00 0.00 0.00 0.00 0.00 0.00 0.00 0.00 0.00 0.00 0.00 0.00 0.00 0.00 0.00 0.00 0.00 0.00 0.00 0.00 0.00 0.00 0.00
0.01 0.01 0.01 0.01 0.01 0.01 0.01 0.01 0.02 0.02 0.01 0.00 0.00 0.00 0.00 0.00 0.00 0.00 0.00 0.00 0.00 0.00 0.00 0.00 0.00 0.00 0.00 0.00 0.00 0.00 0.00 0.00 0.00 0.00 0.00 0.00 0.00 0.00 0.00 0.00 0.00 0.00 0.00
MSLP
1014.97 1015.03 1015.07 1015.08 1015.02 1014.90 1014.75 1014.57 1014.40 1014.24 1014.10 1013.97 1013.85 1013.72 1013.60 1013.49 1013.40 1013.38 1013.45 1013.63 1013.94 1014.35 1014.84 1015.36 1015.89 1016.36 1016.76 1017.07 1017.30 1017.47 1017.61 1017.74 1017.87 1018.01 1018.14 1018.26 1018.33 1018.34 1018.30 1018.23 1018.14 1018.08 1018.09
1015.30 1015.35 1015.36 1015.32 1015.23 1015.10 1014.94 1014.77 1014.61 1014.46 1014.32 1014.17 1014.01 1013.84 1013.66 1013.48 1013.34 1013.26 1013.29 1013.44 1013.72 1014.11 1014.58 1015.08 1015.57 1016.01 1016.38 1016.66 1016.88 1017.05 1017.20 1017.37 1017.55 1017.75 1017.97 1018.17 1018.34 1018.45 1018.52 1018.54 1018.56 1018.59 1018.68
1015.60 1015.66 1015.66 1015.60 1015.50 1015.37 1015.22 1015.08 1014.95 1014.83 1014.71 1014.57 1014.41 1014.21 1014.00 1013.78 1013.60 1013.49 1013.48 1013.60 1013.85 1014.20 1014.64 1015.10 1015.54 1015.94 1016.26 1016.50 1016.68 1016.83 1016.98 1017.16 1017.38 1017.63 1017.91 1018.20 1018.46 1018.68 1018.86 1018.99 1019.11 1019.25 1019.43
1015.83 1015.92 1015.93 1015.88 1015.79 1015.68 1015.56 1015.46 1015.38 1015.31 1015.24 1015.14 1015.00 1014.81 1014.59 1014.36 1014.16 1014.03 1014.00 1014.09 1014.31 1014.63 1015.02 1015.44 1015.83 1016.17 1016.44 1016.63 1016.77 1016.88 1017.01 1017.18 1017.41 1017.70 1018.03 1018.38 1018.72 1019.03 1019.31 1019.55 1019.77 1020.00 1020.27
1015.98 1016.11 1016.16 1016.13 1016.06 1015.98 1015.91 1015.87 1015.85 1015.85 1015.84 1015.80 1015.70 1015.55 1015.35 1015.13 1014.94 1014.80 1014.76 1014.84 1015.04 1015.33 1015.69 1016.06 1016.41 1016.70 1016.91 1017.05 1017.14 1017.21 1017.31 1017.46 1017.68 1017.97 1018.33 1018.72 1019.11 1019.49 1019.85 1020.17 1020.48 1020.78 1021.12
1016.05 1016.23 1016.31 1016.32 1016.29 1016.25 1016.23 1016.25 1016.31 1016.38 1016.45 1016.47 1016.44 1016.34 1016.18 1016.00 1015.82 1015.70 1015.67 1015.74 1015.93 1016.21 1016.54 1016.88 1017.19 1017.44 1017.61 1017.70 1017.75 1017.78 1017.84 1017.96 1018.15 1018.43 1018.79 1019.19 1019.61 1020.03 1020.43 1020.81 1021.18 1021.54 1021.91
1016.05 1016.27 1016.39 1016.44 1016.45 1016.46 1016.50 1016.59 1016.71 1016.86 1017.00 1017.09 1017.13 1017.08 1016.98 1016.84 1016.70 1016.60 1016.59 1016.67 1016.86 1017.13 1017.46 1017.78 1018.07 1018.29 1018.44 1018.50 1018.52 1018.52 1018.54 1018.62 1018.79 1019.04 1019.37 1019.76 1020.18 1020.61 1021.03 1021.44 1021.83 1022.21 1022.61
1015.99 1016.25 1016.41 1016.50 1016.55 1016.61 1016.71 1016.86 1017.04 1017.26 1017.46 1017.61 1017.70 1017.72 1017.66 1017.56 1017.47 1017.40 1017.41 1017.52 1017.72 1018.00 1018.32 1018.65 1018.93 1019.15 1019.28 1019.34 1019.34 1019.33 1019.33 1019.38 1019.52 1019.73 1020.03 1020.39 1020.79 1021.21 1021.62 1022.02 1022.40 1022.78 1023.16
1015.91 1016.20 1016.39 1016.52 1016.62 1016.72 1016.87 1017.07 1017.31 1017.57 1017.81 1018.02 1018.15 1018.21 1018.19 1018.14 1018.08 1018.05 1018.09 1018.22 1018.44 1018.73 1019.06 1019.39 1019.69 1019.92 1020.06 1020.13 1020.14 1020.12 1020.12 1020.16 1020.27 1020.46 1020.72 1021.04 1021.41 1021.79 1022.17 1022.54 1022.89 1023.24 1023.59
1015.83 1016.14 1016.37 1016.53 1016.67 1016.83 1017.02 1017.26 1017.53 1017.82 1018.09 1018.32 1018.48 1018.57 1018.58 1018.56 1018.53 1018.54 1018.60 1018.75 1018.99 1019.30 1019.64 1019.99 1020.30 1020.55 1020.72 1020.81 1020.84 1020.85 1020.85 1020.89 1020.99 1021.16 1021.39 1021.68 1022.00 1022.34 1022.67 1022.99 1023.30 1023.61 1023.90
1015.79 1016.12 1016.37 1016.58 1016.76 1016.96 1017.19 1017.46 1017.75 1018.06 1018.34 1018.58 1018.75 1018.84 1018.88 1018.88 1018.87 1018.90 1018.99 1019.16 1019.41 1019.73 1020.09 1020.45 1020.78 1021.05 1021.24 1021.37 1021.43 1021.46 1021.50 1021.55 1021.65 1021.81 1022.02 1022.27 1022.55 1022.84 1023.12 1023.39 1023.65 1023.89 1024.13
1015.81 1016.15 1016.44 1016.68 1016.91 1017.15 1017.42 1017.70 1018.01 1018.32 1018.60 1018.83 1018.99 1019.09 1019.13 1019.14 1019.15 1019.20 1019.31 1019.49 1019.75 1020.08 1020.43 1020.80 1021.14 1021.42 1021.65 1021.80 1021.90 1021.97 1022.03 1022.11 1022.22 1022.38 1022.57 1022.80 1023.04 1023.29 1023.52 1023.73 1023.93 1024.11 1024.29
1015.89 1016.25 1016.57 1016.86 1017.13 1017.41 1017.70 1018.01 1018.32 1018.62 1018.88 1019.10 1019.25 1019.34 1019.38 1019.40 1019.42 1019.48 1019.60 1019.79 1020.06 1020.37 1020.73 1021.09 1021.42 1021.72 1021.95 1022.13 1022.26 1022.36 1022.45 1022.56 1022.69 1022.85 1023.04 1023.25 1023.46 1023.67 1023.85 1024.02 1024.16 1024.29 1024.42
1016.03 1016.41 1016.76 1017.09 1017.41 1017.72 1018.04 1018.37 1018.68 1018.96 1019.21 1019.40 1019.53 1019.61 1019.65 1019.68 1019.71 1019.78 1019.91 1020.10 1020.36 1020.67 1021.00 1021.34 1021.67 1021.95 1022.19 1022.38 1022.53 1022.65 1022.77 1022.91 1023.05 1023.23 1023.42 1023.61 1023.80 1023.98 1024.13 1024.25 1024.35 1024.44 1024.52
1016.18 1016.58 1016.96 1017.33 1017.69 1018.05 1018.40 1018.73 1019.04 1019.31 1019.54 1019.71 1019.83 1019.90 1019.94 1019.97 1020.01 1020.10 1020.23 1020.42 1020.67 1020.95 1021.26 1021.58 1021.87 1022.14 1022.37 1022.55 1022.71 1022.86 1023.00 1023.15 1023.32 1023.50 1023.69 1023.88 1024.06 1024.21 1024.34 1024.43 1024.50 1024.56 1024.61
1016.30 1016.71 1017.13 1017.54 1017.94 1018.33 1018.70 1019.04 1019.35 1019.62 1019.82 1019.98 1020.09 1020.15 1020.20 1020.24 1020.30 1020.39 1020.53 1020.71 1020.95 1021.21 1021.49 1021.78 1022.04 1022.28 1022.49 1022.67 1022.83 1022.98 1023.14 1023.30 1023.48 1023.67 1023.87 1024.06 1024.23 1024.37 1024.48 1024.56 1024.62 1024.66 1024.70
1016.34 1016.77 1017.21 1017.66 1018.10 1018.52 1018.91 1019.27 1019.57 1019.83 1020.03 1020.17 1020.27 1020.34 1020.39 1020.44 1020.51 1020.62 1020.76 1020.95 1021.17 1021.41 1021.66 1021.91 1022.15 1022.36 1022.55 1022.72 1022.88 1023.03 1023.20 1023.38 1023.57 1023.77 1023.97 1024.15 1024.32 1024.46 1024.57 1024.65 1024.71 1024.76 1024.80
1016.28 1016.73 1017.20 1017.67 1018.14 1018.58 1018.99 1019.36 1019.67 1019.92 1020.12 1020.26 1020.36 1020.43 1020.49 1020.55 1020.64 1020.75 1020.90 1021.08 1021.29 1021.52 1021.75 1021.97 1022.18 1022.37 1022.54 1022.71 1022.86 1023.03 1023.20 1023.39 1023.59 1023.79 1024.00 1024.19 1024.36 1024.51 1024.62 1024.71 1024.78 1024.84 1024.90
1016.15 1016.61 1017.09 1017.58 1018.07 1018.53 1018.95 1019.33 1019.64 1019.89 1020.09 1020.23 1020.33 1020.41 1020.48 1020.56 1020.66 1020.78 1020.94 1021.11 1021.32 1021.53 1021.74 1021.94 1022.14 1022.31 1022.48 1022.64 1022.80 1022.97 1023.16 1023.35 1023.56 1023.77 1023.98 1024.18 1024.35 1024.51 1024.63 1024.74 1024.83 1024.92 1025.00
1015.99 1016.44 1016.93 1017.42 1017.92 1018.39 1018.82 1019.20 1019.51 1019.77 1019.97 1020.12 1020.22 1020.31 1020.40 1020.49 1020.59 1020.73 1020.88 1021.06 1021.26 1021.46 1021.66 1021.85 1022.04 1022.21 1022.38 1022.55 1022.72 1022.90 1023.09 1023.30 1023.51 1023.73 1023.94 1024.13 1024.31 1024.47 1024.61 1024.74 1024.85 1024.96 1025.07
1015.87 1016.30 1016.78 1017.27 1017.75 1018.22 1018.65 1019.03 1019.34 1019.60 1019.81 1019.96 1020.08 1020.18 1020.27 1020.37 1020.49 1020.63 1020.78 1020.96 1021.15 1021.34 1021.54 1021.73 1021.92 1022.10 1022.28 1022.46 1022.64 1022.84 1023.04 1023.25 1023.46 1023.68 1023.88 1024.07 1024.25 1024.41 1024.56 1024.69 1024.83 1024.96 1025.09
1015.85 1016.26 1016.70 1017.17 1017.63 1018.08 1018.50 1018.87 1019.18 1019.44 1019.65 1019.81 1019.94 1020.05 1020.16 1020.27 1020.39 1020.52 1020.68 1020.85 1021.04 1021.23 1021.42 1021.61 1021.81 1022.00 1022.19 1022.39 1022.59 1022.80 1023.01 1023.22 1023.43 1023.63 1023.82 1024.00 1024.16 1024.31 1024.46 1024.60 1024.74 1024.89 1025.04
1015.99 1016.35 1016.75 1017.17 1017.60 1018.02 1018.41 1018.76 1019.07 1019.32 1019.54 1019.71 1019.85 1019.97 1020.08 1020.20 1020.32 1020.46 1020.61 1020.77 1020.95 1021.14 1021.33 1021.53 1021.74 1021.94 1022.15 1022.37 1022.58 1022.80 1023.01 1023.22 1023.41 1023.60 1023.76 1023.92 1024.05 1024.18 1024.31 1024.45 1024.59 1024.74 1024.90
1016.26 1016.57 1016.91 1017.28 1017.66 1018.03 1018.39 1018.71 1019.00 1019.26 1019.47 1019.64 1019.79 1019.93 1020.05 1020.17 1020.29 1020.43 1020.58 1020.73 1020.91 1021.09 1021.29 1021.49 1021.71 1021.93 1022.15 1022.38 1022.60 1022.83 1023.04 1023.23 1023.41 1023.57 1023.70 1023.82 1023.92 1024.02 1024.12 1024.23 1024.36 1024.51 1024.67
1016.63 1016.87 1017.15 1017.45 1017.77 1018.09 1018.40 1018.70 1018.97 1019.21 1019.42 1019.60 1019.76 1019.90 1020.03 1020.15 1020.28 1020.41 1020.56 1020.71 1020.88 1021.06 1021.26 1021.47 1021.69 1021.92 1022.16 1022.40 1022.63 1022.86 1023.06 1023.25 1023.40 1023.53 1023.63 1023.71 1023.77 1023.83 1023.90 1023.97 1024.07 1024.20 1024.35
1017.00 1017.18 1017.38 1017.62 1017.87 1018.14 1018.40 1018.66 1018.90 1019.13 1019.33 1019.52 1019.68 1019.83 1019.97 1020.10 1020.23 1020.37 1020.51 1020.66 1020.82 1021.00 1021.20 1021.41 1021.64 1021.88 1022.13 1022.38 1022.63 1022.85 1023.06 1023.23 1023.37 1023.47 1023.54 1023.58 1023.60 1023.62 1023.64 1023.68 1023.74 1023.83 1023.95
Thickness
5766 5763 5760 5757 5755 5753 5750 5748 5747 5746 5745 5744 5743 5742 5741 5739 5738 5736 5734 5733 5731 5729 5727 5726 5724 5724 5722 5721 5719 5718 5716 5713 5708 5707 5706 5706 5704 5703 5701 5699 5698 5695 5693
5764 5761 5757 5754 5751 5749 5746 5745 5744 5742 5741 5740 5739 5737 5735 5734 5732 5730 5728 5727 5725 5723 5721 5720 5719 5719 5716 5715 5714 5712 5710 5709 5705 5701 5699 5698 5697 5695 5693 5690 5689 5687 5685
5762 5758 5754 5750 5747 5744 5742 5741 5740 5738 5736 5735 5733 5731 5729 5728 5726 5725 5723 5721 5719 5717 5715 5714 5713 5712 5710 5708 5707 5706 5705 5704 5701 5696 5693 5691 5689 5687 5684 5681 5679 5677 5675
5759 5754 5749 5746 5743 5741 5739 5737 5735 5733 5730 5728 5727 5725 5723 5722 5720 5718 5716 5714 5712 5710 5708 5707 5706 5705 5703 5702 5701 5699 5698 5695 5693 5689 5685 5682 5679 5677 5674 5670 5667 5665 5664
5755 5750 5745 5742 5740 5737 5734 5732 5730 5728 5725 5723 5720 5718 5717 5715 5713 5711 5709 5707 5704 5701 5701 5700 5699 5698 5696 5695 5694 5691 5690 5687 5683 5680 5675 5672 5669 5666 5663 5661 5657 5655 5652
5751 5745 5742 5739 5735 5732 5729 5726 5724 5721 5718 5716 5713 5711 5709 5707 5705 5704 5701 5699 5696 5694 5692 5691 5690 5688 5687 5686 5685 5684 5682 5678 5673 5670 5666 5663 5660 5658 5656 5654 5649 5645 5641
5746 5742 5738 5734 5730 5727 5724 5720 5717 5714 5711 5708 5705 5703 5701 5699 5698 5696 5694 5692 5689 5686 5683 5682 5681 5679 5677 5675 5674 5673 5671 5669 5667 5663 5658 5655 5652 5650 5648 5645 5641 5637 5633
5741 5737 5733 5729 5725 5721 5718 5714 5710 5707 5703 5700 5697 5695 5693 5691 5690 5689 5687 5684 5680 5677 5675 5672 5669 5668 5667 5665 5663 5661 5658 5656 5655 5653 5650 5647 5645 5643 5640 5636 5631 5626 5623
5735 5731 5728 5724 5719 5715 5711 5707 5704 5700 5696 5692 5690 5688 5685 5683 5682 5681 5679 5675 5671 5667 5665 5663 5661 5659 5657 5656 5654 5650 5647 5644 5644 5642 5640 5637 5636 5633 5630 5626 5620 5616 5610
5730 5726 5723 5719 5714 5710 5706 5702 5698 5694 5689 5685 5682 5679 5677 5675 5674 5672 5670 5666 5661 5658 5655 5653 5651 5649 5647 5646 5643 5640 5636 5632 5631 5630 5628 5626 5623 5620 5617 5614 5609 5604 5599
5726 5722 5716 5712 5708 5704 5699 5695 5691 5687 5682 5678 5674 5671 5668 5667 5665 5664 5661 5658 5653 5649 5645 5642 5641 5640 5638 5636 5633 5630 5626 5623 5620 5618 5615 5612 5609 5607 5604 5601 5598 5594 5589
5720 5715 5709 5705 5702 5698 5693 5688 5684 5679 5674 5669 5666 5662 5659 5658 5656 5654 5652 5649 5645 5641 5636 5633 5631 5630 5628 5626 5623 5620 5617 5614 5610 5606 5602 5597 5595 5592 5590 5588 5585 5582 5579
5712 5707 5702 5697 5693 5689 5686 5681 5676 5672 5667 5662 5658 5653 5650 5648 5647 5645 5643 5640 5637 5632 5628 5626 5623 5621 5618 5615 5613 5610 5607 5603 5598 5593 5588 5584 5582 5580 5578 5575 5572 5569 5566
5704 5699 5694 5689 5684 5680 5676 5672 5669 5664 5660 5655 5650 5646 5642 5640 5637 5635 5633 5630 5628 5624 5620 5617 5615 5612 5608 5605 5602 5598 5595 5591 5586 5581 5576 5573 5571 5569 5565 5562 5558 5555 5551
5697 5691 5686 5680 5675 5670 5665 5661 5659 5656 5654 5650 5645 5641 5636 5632 5630 5629 5626 5622 5619 5616 5612 5608 5604 5600 5596 5593 5589 5586 5582 5579 5574 5570 5566 5562 5559 5556 5552 5549 5546 5542 5537
5690 5684 5679 5673 5668 5663 5658 5652 5650 5648 5646 5644 5640 5636 5631 5628 5625 5622 5619 5616 5612 5609 5604 5597 5592 5589 5585 5581 5577 5574 5570 5566 5563 5559 5556 5551 5547 5544 5540 5537 5534 5529 5525
5685 5679 5674 5668 5662 5656 5652 5648 5642 5638 5636 5634 5631 5628 5625 5621 5617 5614 5611 5607 5604 5600 5594 5588 5583 5579 5575 5571 5567 5564 5559 5556 5553 5550 5546 5542 5538 5534 5530 5526 5522 5518 5514
5678 5674 5668 5662 5657 5651 5646 5641 5637 5633 5627 5623 5621 5619 5616 5613 5609 5606 5603 5599 5593 5589 5584 5579 5575 5571 5567 5563 5559 5555 5551 5547 5544 5540 5536 5532 5528 5525 5520 5516 5512 5509 5505
5673 5668 5663 5657 5651 5646 5640 5635 5630 5626 5621 5616 5612 5609 5607 5604 5601 5598 5594 5589 5584 5579 5575 5571 5567 5563 5559 5555 5551 5547 5542 5538 5534 5531 5527 5523 5520 5516 5512 5508 5504 5502 5498
5666 5662 5657 5651 5645 5639 5633 5628 5623 5618 5613 5609 5605 5602 5598 5595 5591 5587 5584 5580 5576 5572 5568 5563 5559 5555 5551 5547 5542 5538 5534 5529 5525 5522 5518 5515 5511 5508 5504 5500 5497 5493 5490
5658 5654 5650 5644 5639 5633 5628 5622 5617 5612 5607 5603 5600 5597 5593 5588 5583 5580 5576 5572 5568 5564 5560 5556 5552 5547 5543 5539 5534 5530 5525 5520 5516 5513 5510 5507 5504 5500 5497 5494 5490 5487 5484
5649 5645 5641 5636 5631 5626 5621 5616 5611 5606 5602 5598 5594 5590 5586 5581 5577 5572 5569 5565 5561 5558 5554 5549 5544 5540 5535 5531 5526 5522 5517 5512 5509 5505 5502 5499 5496 5493 5490 5486 5483 5480 5477
5640 5636 5631 5627 5623 5619 5614 5609 5605 5600 5596 5591 5588 5583 5579 5574 5570 5566 5562 5559 5555 5550 5546 5542 5537 5532 5527 5523 5519 5515 5511 5506 5502 5499 5495 5492 5489 5486 5483 5479 5476 5473 5471
5632 5628 5623 5619 5615 5612 5607 5603 5599 5595 5590 5586 5582 5578 5573 5569 5564 5560 5556 5552 5548 5543 5539 5534 5529 5525 5520 5516 5512 5508 5504 5500 5497 5494 5490 5486 5483 5480 5477 5473 5471 5468 5465
5624 5619 5616 5611 5608 5604 5600 5596 5592 5589 5584 5580 5576 5572 5568 5563 5559 5555 5551 5546 5542 5537 5532 5527 5523 5518 5514 5510 5506 5502 5498 5494 5491 5488 5484 5481 5477 5474 5471 5468 5465 5463 5460
5615 5612 5608 5604 5601 5597 5593 5589 5586 5582 5578 5574 5570 5566 5562 5558 5554 5550 5545 5540 5536 5531 5526 5521 5517 5512 5508 5504 5500 5496 5492 5489 5485 5482 5478 5475 5472 5469 5466 5463 5461 5458 5456